DECAYED

STARLINK-11214, 60244 (Decayed)

Orbit data source: Space-Track

STARLINK-11214, 60244 was a payload satellite owned by SpaceX/Seattle (US) in LEO that was launched on Fri, 12 Jul 2024 UTC via an FALCON 9 launch vehicle from the Air Force Western Test Range (AFWTR). Payload-class satellites include a variety of spacecraft equipped with specific instruments for various scientific and technological missions. These include communications satellites like Starlink; space stations such as the ISS; scientific satellites like the Hubble; Earth observation satellites from companies like Planet Labs, Umbra, and HawkEye 360; GPS; miniature CubeSats for education and research; and military/defense satellites.

Not visible in the next 10 days
Identifier
60244, 2024-129A
Orbit
Decayed
Last TLE update
1 year ago
Origin
Manufacturer
SpaceX/Seattle
Mission
Decayed Commercial Communications
Bus & Motor
STARLINK V2M, Unknown motor
Mass
730 kg wet, ~700 kg dry
Launch date (UTC)
2024-07-12 (1 year ago)
Launch vehicle
FALCON 9
Launch site
Air Force Western Test Range (AFWTR)
Object type
Payload
Rocket body
Debris
Shape & HBR
Box + 2 Pan, 29 m
Radar Cross Section
36.964 m², Small (<0.1 m²)

Expand to show TLE details & history

TLE from 1 year ago
0 STARLINK-11214
1 60244U 24129A   24198.53421304  .22208332  12564-4  21394-3 0  9996
2 60244  53.2936  35.7088 0005292 150.3844 302.4407 16.50887656  1508
Epoch: 2024-07-16T12:49Z
TLE epoch observation values (Epoch: 2024-07-16T12:49:16.006Z)
Latitude
53.3625°
Longitude
3.18009°
Altitude
141.691 km
Speed
7.829 km/s
True Right ascension
08h 41m 23s
True Declination
53° 10' 55"
Sunlit
Object was in daylight at epoch
Visualization orbit readout
Visualization observer readout
Orbital elements
Apogee altitude
140.694 km
Perigee altitude
133.798 km
Semi-major axis
6,515.383 km
Eccentricity
0.00053
Inclination
53.2936°
RAAN
35.7088°
Arg. of periapsis
150.3844°
True anomaly
Unknown
Mean anomaly
302.4407°
Eccentric anomaly
Unknown
Mean motion
4.12699 °/min
Orbital period
87.23 mins
BSTAR
0.00021394
Loading maneuver chart data...
Loading SW <> Apogee altitude chart data...
Loading historical data...
Loading historical data...
Loading historical data...
Loading historical data...
Loading historical data...
Loading historical data...
Loading historical data...
Other satellites on launch #129 in the year 2024 (2024-07-12 UTC)

STARLINK-11214 Visibility

Observer location: undefined°, undefined°

This satellite is decayed
Span
Click to sort rows by Start time (UTC) header in descending order
Start Az.
Max El. time (UTC)
Max El. Az.
Max El.
End time (UTC)
End Az.
|